Theta_e
324 319 322 324 323 323 325 328 340 343 347 347 348 348 347 345 347 338 337 341 342 340
321 321 318 322 325 324 327 327 333 340 343 346 346 347 347 345 344 342 333 339 334 329
317 320 321 319 321 324 326 328 331 334 341 344 344 345 345 344 341 334 319 319 320 319
313 314 317 317 319 324 325 327 330 333 336 339 341 340 338 334 331 327 316 313 315 314
311 312 313 315 317 323 325 326 327 332 334 338 335 332 331 327 324 320 319 311 311 311
309 310 312 314 317 322 325 327 330 332 334 334 328 325 327 327 321 317 316 310 310 307
308 311 312 316 321 323 327 330 333 332 332 328 323 322 318 317 312 310 308 308 307 305
307 310 314 316 320 325 329 331 331 326 321 319 317 315 313 310 308 305 306 302 302 302
309 316 317 320 322 324 318 317 315 314 311 308 308 304 306 307 304 303 301 301 303 303
310 313 312 314 313 311 309 309 306 304 303 302 303 301 302 303 302 302 301 302 302 302
308 308 307 305 305 304 303 302 300 300 300 299 299 298 298 299 298 296 297 299 298 297
305 305 304 302 300 300 299 298 297 298 297 297 296 297 297 297 297 295 294 295 297 298
302 301 300 299 298 297 297 296 296 296 296 296 294 295 295 296 296 294 294 296 297 296
300 299 298 297 296 296 295 295 294 294 294 294 295 295 295 295 296 295 296 296 295 294
Wind_Speed
17 10 12 13 12 12 12 13 13 14 15 17 17 15 14 12 11 10 9 11 7 6
15 16 13 17 14 12 14 13 15 15 16 17 17 16 15 11 11 12 7 9 9 6
17 16 16 14 17 16 15 16 16 17 16 16 16 15 13 10 11 13 8 8 10 7
15 16 15 15 16 16 17 16 17 18 17 17 15 14 12 11 12 13 12 9 10 10
17 17 16 14 16 17 17 17 17 18 17 16 14 10 13 13 12 14 15 14 13 13
19 18 17 16 15 15 16 16 16 17 16 14 12 12 13 14 14 14 15 13 14 11
19 18 18 16 16 14 15 16 16 14 11 11 13 12 12 14 14 13 11 11 15 11
19 18 17 14 13 13 13 11 10 11 12 12 12 10 14 14 15 17 15 14 10 12
17 11 12 11 10 7 10 11 13 13 14 13 8 18 20 17 15 16 18 16 13 14
11 7 9 10 11 12 12 13 14 14 16 16 16 25 26 26 15 15 14 15 14 14
9 6 9 13 13 12 14 15 15 15 17 18 15 29 30 30 19 15 12 11 14 12
9 7 7 13 13 12 15 15 16 15 17 19 17 28 30 25 16 17 14 9 14 11
9 10 10 11 13 13 15 16 14 17 16 23 19 24 23 19 14 16 13 12 12 16
11 12 12 12 12 14 17 18 18 20 17 18 18 17 20 15 14 13 13 10 11 10
Wind_Direction
289 280 275 271 265 260 256 248 246 232 222 222 219 218 214 215 204 206 214 211 192 201
292 286 276 277 271 260 251 252 249 238 228 220 219 216 212 210 195 187 172 191 180 174
293 291 284 276 267 259 254 246 240 239 233 222 214 211 205 203 185 169 153 135 152 140
292 288 286 279 266 259 256 243 236 231 227 224 209 197 189 179 170 159 136 128 130 129
296 289 279 273 267 261 256 243 236 230 219 210 203 167 175 164 160 155 148 138 139 126
292 286 279 268 263 258 258 239 230 219 207 201 157 161 167 157 152 152 148 137 125 112
287 279 276 269 266 259 246 227 216 203 184 155 150 145 139 135 130 117 108 112 116 113
293 281 267 257 254 251 220 215 190 133 122 130 126 135 132 127 127 119 109 91 86 94
299 302 289 257 232 117 99 104 111 112 109 103 99 109 114 117 115 110 110 111 113 105
319 333 31 62 87 95 97 97 94 91 95 94 99 106 107 107 104 103 104 114 109 94
349 18 63 80 80 84 88 90 89 91 96 98 100 106 104 98 97 86 90 93 102 105
21 42 63 86 90 88 93 91 90 92 99 102 99 101 104 105 100 102 87 79 74 90
39 56 64 80 87 91 93 93 93 88 86 94 93 89 93 107 114 101 94 79 86 85
49 58 66 74 83 97 97 96 92 91 85 84 84 82 87 90 97 100 107 101 95 88